Regional Weather Roundup
Issued by NWS Little Rock, AR

Home | Current Version | Previous Version | Graphics & Text | Print | Product List | Glossary On
Versions: 1 2 3 4 5 6 7 8 9 10 11 12 13 14 15 16 17 18 19 20 21 22 23 24 25 26 27 28 29 30 31 32 33 34 35 36 37 38 39 40 41 42 43 44 45 46 47 48
000
ASUS44 KLZK 260805
RWRLZK

WEATHER ROUNDUP FOR ARKANSAS
NATIONAL WEATHER SERVICE LITTLE ROCK AR
200 AM CST FRI DEC 26 2014

NOTE: "FAIR" INDICATES FEW OR NO CLOUDS BELOW 12,000 FEET WITH NO
SIGNIFICANT WEATHER AND/OR OBSTRUCTIONS TO VISIBILITY.

ARZ001-003-010-029-260900-
NORTHWEST ARKANSAS

CITY           SKY/WX    TMP DP  RH WIND       PRES   REMARKS
FAYETTEVILLE   MOCLDY    46  35  65 S16       29.96R
FORT SMITH     MOCLDY    41  33  73 NE3       30.01R
HARRISON       MOCLDY    44  35  70 SE9       29.98S
BENTONVILLE    MOCLDY    46  34  61 S13       29.95S
ROGERS         MOCLDY    46  35  65 S14       29.95S
SILOAM SPGS    MOCLDY    46  30  53 S15       29.96R
HIGHFILL       MOCLDY    45  34  65 S12       29.94R
$$

ARZ004-005-016-260900-
NORTH CENTRAL ARKANSAS

CITY           SKY/WX    TMP DP  RH WIND       PRES   REMARKS
BATESVILLE     CLEAR     45  34  65 S7        30.09R
FLIPPIN        PTCLDY    43  32  65 SE5       30.02R
MTN HOME       PTCLDY    44  35  70 S10       30.00F
$$

ARZ040-041-260900-
WEST CENTRAL ARKANSAS

CITY           SKY/WX    TMP DP  RH WIND       PRES   REMARKS
MENA           PTCLDY    50  43  76 S6        30.05R
MOUNT IDA      CLOUDY    50  42  74 VRB6      30.04R
$$

ARZ009-017-025-026-028-260900-
NORTHEAST ARKANSAS

CITY           SKY/WX    TMP DP  RH WIND       PRES   REMARKS
CORNING        FAIR      41  36  81 S8        30.12R
JONESBORO      CLEAR     39  35  86 S5        30.14R
NEWPORT        CLEAR     41  37  85 S8        30.14R
WALNUT RIDGE   CLEAR     41  34  75 S10       30.11R
BLYTHEVILLE    CLEAR     40  35  83 S6        30.16R
$$

ARZ022-023-033-042-044-260900-
CENTRAL ARKANSAS

CITY           SKY/WX    TMP DP  RH WIND       PRES   REMARKS
LITTLE ROCK    PTCLDY    43  35  73 S3        30.12R
N LITTLE ROCK    N/A     44  39  82 S7        30.12R
JACKSONVILLE   PTCLDY    38  34  85 N2        30.11R
SEARCY         CLEAR     45  36  70 SW6       30.14R
HOT SPRINGS    CLOUDY    47  39  74 VRB3      30.10R
RUSSELLVILLE   PTCLDY    45  37  73 SE3       30.06R
CLINTON        FAIR      36  32  87 CALM      30.10R
$$

ARZ036-260900-
EAST ARKANSAS

CITY           SKY/WX    TMP DP  RH WIND       PRES   REMARKS
WEST MEMPHIS   MOCLDY    41  37  86 S7        30.16R
$$

ARZ050-053-066-070-073-260900-
SOUTHWEST ARKANSAS

CITY           SKY/WX    TMP DP  RH WIND       PRES   REMARKS
ARKADELPHIA    FAIR      40  39  96 CALM      30.12R
CAMDEN         CLOUDY    39  36  87 MISG      30.13R
TEXARKANA      PTCLDY    43  41  93 SE6       30.08R
EL DORADO      CLOUDY    44  38  79 SE3       30.13R
DE QUEEN       MOCLDY    45  40  82 E3        30.06R
$$

ARZ056-057-069-260900-
SOUTHEAST ARKANSAS

CITY           SKY/WX    TMP DP  RH WIND       PRES   REMARKS
PINE BLUFF     MOCLDY    44  36  73 S8        30.13R
STUTTGART      MOCLDY    43  36  75 SE10      30.14R
MONTICELLO     MOCLDY    41  35  79 S7        30.15R

$$





USA.gov is the U.S. government's official web portal to all federal, state and local government web resources and services.